This is the latest recevied weather packets stored in our database for station/object GW4003. If no packets are shown the sender has not sent any weather packets the latest 10 day(s).
| Time | Temp. | Humidity | Pressure | Rain* | Wind** | Luminosity | Snow |
|---|---|---|---|---|---|---|---|
| 1788618326 | 20° C | 53% | 1020 hPa | 0 mm | - | - | - |
| 1788618022 | 19.44° C | 55% | 1019.9 hPa | 0 mm | - | - | - |
| 1788617718 | 18.89° C | 57% | 1019.8 hPa | 0 mm | - | - | - |
| 1788617414 | 18.33° C | 58% | 1019.8 hPa | 0 mm | - | - | - |
| 1788617110 | 18.33° C | 59% | 1019.7 hPa | 0 mm | - | - | - |
| 1788616807 | 17.78° C | 59% | 1019.6 hPa | 0 mm | - | - | - |
| 1788616503 | 17.78° C | 59% | 1019.6 hPa | 0 mm | - | - | - |
| 1788616199 | 17.78° C | 58% | 1019.6 hPa | 0 mm | - | - | - |
| 1788615896 | 17.78° C | 58% | 1019.6 hPa | 0 mm | - | - | - |
| 1788615591 | 17.78° C | 59% | 1019.6 hPa | 0 mm | - | - | - |
| 1788615288 | 17.22° C | 59% | 1019.7 hPa | 0 mm | - | - | - |
| 1788614984 | 17.22° C | 59% | 1019.7 hPa | 0 mm | - | - | - |
| 1788614679 | 17.22° C | 59% | 1019.7 hPa | 0 mm | - | - | - |
| 1788614376 | 17.22° C | 59% | 1019.6 hPa | 0 mm | - | - | - |
| 1788614079 | 17.22° C | 59% | 1019.7 hPa | 0 mm | - | - | - |
| 1788613768 | 17.78° C | 59% | 1019.6 hPa | 0 mm | - | - | - |
| 1788613464 | 17.78° C | 59% | 1019.6 hPa | 0 mm | - | - | - |
| 1788613161 | 17.78° C | 59% | 1019.5 hPa | 0 mm | - | - | - |
| 1788612856 | 17.78° C | 59% | 1019.4 hPa | 0 mm | - | - | - |
| 1788612553 | 17.78° C | 59% | 1019.4 hPa | 0 mm | - | - | - |
| 1788612249 | 17.78° C | 58% | 1019.2 hPa | 0 mm | - | - | - |
| 1788611945 | 17.78° C | 58% | 1019.2 hPa | 0 mm | - | - | - |
| 1788611642 | 17.78° C | 58% | 1019 hPa | 0 mm | - | - | - |
| 1788611338 | 17.78° C | 58% | 1019 hPa | 0 mm | - | - | - |
| 1788611035 | 18.33° C | 58% | 1019 hPa | 0 mm | - | - | - |
* Rain latest hour (hover to see other rain measurements)
** Current wind speed in m/s (hover to see current wind gust speed)